STARLINK-2534, 48311

Orbit data source: Space-Track

STARLINK-2534, 48311 is a payload satellite owned by SpaceX/Seattle (US) in LEO that was launched on Thu, 29 Apr 2021 UTC via an FALCON 9 launch vehicle from the Air Force Eastern Test Range (AFETR). Payloads include a variety of satellites, spacecraft, and rockets equipped with specific instruments for various scientific and technological missions. These include communications satellites like Starlink; space stations such as the ISS; scientific satellites like the Hubble; Earth observation satellites from companies like Planet Labs, Umbra, and HawkEye 360; GPS; miniature CubeSats for education and research; and military/defense satellites.

Loading next visibility...
STARLINK-2534 details
Identifier
48311, 2021-036AM
Orbit
LEO
Last TLE update9 hours ago
Origin
Flag of USSpaceX/Seattle (US)
ManufacturerSpaceX/Seattle
MissionOperational Commercial Communications
Bus & MotorSTARLINK, Unknown motor
Mass260 kg wet, ~248 kg dry
Launch date (UTC)
2021-04-29 (4 years ago)
Launch vehicle
FALCON 9
Launch site
Air Force Eastern Test Range (AFETR)
Object type
Payload
Rocket body
Debris
Shape & HBRBox + 1 Pan, 8.86 m
Radar Cross Section13.562 m², Large (>1 m²)

Expand to show TLE details & history

TLE from 9 hours ago
0 STARLINK-2534
1 48311U 21036AM  25036.13909894  .00002759  00000-0  20417-3 0  9998
2 48311  53.0547  76.2922 0001003  83.5444 276.5659 15.06380273208895
Epoch: 2025-02-05T03:20Z
Definitive object data (Epoch: 2025-02-05T03:20:18.148Z)
Latitude-0.00003°
Longitude-109.31777°
Altitude548.072 km
Speed7.589 km/s
True Right ascension05h 05m 10s
True Declination0° 00' 00"
Sunlit
Object was in full shadow at TLE epoch
Visualization TLE readout
Latitude15.63793°
Longitude56.97517°
Altitude547.283 km
Speed7.591 km/s
Apparent Right ascension19h 13m 32s
Apparent Declination-31° 41' 03"
Sunlit
Object is in daylight
Visualization observer readout
Local Sidereal Time14:03:36
Azimuth122.103° SE
Elevation-11.279°
Doppler factor1
Orbital elements
Apogee altitude548.237 km
Perigee altitude546.848 km
Semi-major axis6,925.68 km
Eccentricity0.0001003
Inclination53.0547°
RAAN76.2922°
Arg. of periapsis83.5444°
True anomaly276.55448°
Mean anomaly276.5659°
Eccentric anomaly276.56019°
Mean motion3.76573 °/min
BSTAR0.00020417
Orbital period95.6 mins
Loading maneuver chart data...
Loading historical data...
Loading historical data...
Loading historical data...
Loading historical data...
Loading historical data...
Loading historical data...
Loading historical data...

STARLINK-2534 Visibility forecast

Observer location: undefined°, undefined

Span
Click to sort rows by Start time (UTC) header in descending order
Start Az.
Max El. time (UTC)
Max El. Az.
Max El.
End time (UTC)
End Az.
6 mins2025-02-05 13:26:31.022Z281.756° WNW2025-02-05 13:29:31.022Z233.982° WSW20.308°2025-02-05 13:32:31.022Z183.243° SSW
6 mins2025-02-06 05:00:31.022Z215.27° SW2025-02-06 05:02:31.022Z145.649° SSE43.291°2025-02-06 05:06:31.022Z54.358° ENE
5 mins2025-02-06 06:40:31.022Z296.854° NW2025-02-06 06:42:31.022Z337.857° N22.109°2025-02-06 06:45:31.022Z28.634° NE
4 mins2025-02-06 10:02:31.022Z351.511° N2025-02-06 10:03:31.022Z9.25° NNE17.463°2025-02-06 10:06:31.022Z60.161° ENE
6 mins2025-02-06 11:41:31.022Z317.421° NNW2025-02-06 11:44:31.022Z78.469° E41.944°2025-02-06 11:47:31.022Z120.899° SE
|